Year,Month,Day,Hour,Minute,Value (Times are PST for temperature in C)
2023,03,29,00,00,3.40
2023,03,29,00,01,3.40
2023,03,29,00,02,3.40
2023,03,29,00,03,3.30
2023,03,29,00,04,3.30
2023,03,29,00,05,3.30
2023,03,29,00,06,3.30
2023,03,29,00,07,3.30
2023,03,29,00,08,3.30
2023,03,29,00,09,3.30
2023,03,29,00,10,3.30
2023,03,29,00,11,3.30
2023,03,29,00,12,3.30
2023,03,29,00,13,3.30
2023,03,29,00,14,3.20
2023,03,29,00,15,3.20
2023,03,29,00,16,3.20
2023,03,29,00,17,3.20
2023,03,29,00,18,3.20
2023,03,29,00,19,3.10
2023,03,29,00,20,3.10
2023,03,29,00,21,3.10
2023,03,29,00,22,3.10
2023,03,29,00,23,3.00
2023,03,29,00,24,3.00
2023,03,29,00,25,3.00
2023,03,29,00,26,2.90
2023,03,29,00,27,2.90
2023,03,29,00,28,2.90
2023,03,29,00,29,2.80
2023,03,29,00,30,2.80
2023,03,29,00,31,2.80
2023,03,29,00,32,2.80
2023,03,29,00,33,2.80
2023,03,29,00,34,2.80
2023,03,29,00,35,2.70
2023,03,29,00,36,2.70
2023,03,29,00,37,2.70
2023,03,29,00,38,2.70
2023,03,29,00,39,2.70
2023,03,29,00,40,2.70
2023,03,29,00,41,2.60
2023,03,29,00,42,2.60
2023,03,29,00,43,2.60
2023,03,29,00,44,2.60
2023,03,29,00,45,2.60
2023,03,29,00,46,2.60
2023,03,29,00,47,2.60
2023,03,29,00,48,2.60
2023,03,29,00,49,2.60
2023,03,29,00,50,2.60
2023,03,29,00,51,2.60
2023,03,29,00,52,2.60
2023,03,29,00,53,2.60
2023,03,29,00,54,2.60
2023,03,29,00,55,2.70
2023,03,29,00,56,2.70
2023,03,29,00,57,2.70
2023,03,29,00,58,2.70
2023,03,29,00,59,2.70
2023,03,29,01,00,2.70
2023,03,29,01,01,2.70
2023,03,29,01,02,2.70
2023,03,29,01,03,2.70
2023,03,29,01,04,2.70
2023,03,29,01,05,2.80
2023,03,29,01,06,2.80
2023,03,29,01,07,2.80
2023,03,29,01,08,2.80
2023,03,29,01,09,2.90
2023,03,29,01,10,2.90
2023,03,29,01,11,2.90
2023,03,29,01,12,3.00
2023,03,29,01,13,3.00
2023,03,29,01,14,3.00
2023,03,29,01,15,3.10
2023,03,29,01,16,3.10
2023,03,29,01,17,3.10
2023,03,29,01,18,3.10
2023,03,29,01,19,3.20
2023,03,29,01,20,3.20
2023,03,29,01,21,3.20
2023,03,29,01,22,3.30
2023,03,29,01,23,3.30
2023,03,29,01,24,3.30
2023,03,29,01,25,3.40
2023,03,29,01,26,3.40
2023,03,29,01,27,3.50
2023,03,29,01,28,3.50
2023,03,29,01,29,3.70
2023,03,29,01,30,3.70
2023,03,29,01,31,3.80
2023,03,29,01,32,3.90
2023,03,29,01,33,3.90
2023,03,29,01,34,3.90
2023,03,29,01,35,3.90
2023,03,29,01,36,4.00
2023,03,29,01,37,4.00
2023,03,29,01,38,4.00
2023,03,29,01,39,4.00
2023,03,29,01,40,4.10
2023,03,29,01,41,4.10
2023,03,29,01,42,4.10
2023,03,29,01,43,4.10
2023,03,29,01,44,4.10
2023,03,29,01,45,4.10
2023,03,29,01,46,4.10
2023,03,29,01,47,4.10
2023,03,29,01,48,4.10
2023,03,29,01,49,4.20
2023,03,29,01,50,4.20
2023,03,29,01,51,4.20
2023,03,29,01,52,4.30
2023,03,29,01,53,4.30
2023,03,29,01,54,4.30
2023,03,29,01,55,4.40
2023,03,29,01,56,4.40
2023,03,29,01,57,4.40
2023,03,29,01,58,4.40
2023,03,29,01,59,4.40
2023,03,29,02,00,4.50
2023,03,29,02,01,4.50
2023,03,29,02,02,4.50
2023,03,29,02,03,4.50
2023,03,29,02,04,4.60
2023,03,29,02,05,4.70
2023,03,29,02,06,4.70
2023,03,29,02,07,4.70
2023,03,29,02,08,4.70
2023,03,29,02,09,4.70
2023,03,29,02,10,4.80
2023,03,29,02,11,4.80
2023,03,29,02,12,4.80
2023,03,29,02,13,4.80
2023,03,29,02,14,4.80
2023,03,29,02,15,4.80
2023,03,29,02,16,4.90
2023,03,29,02,17,4.90
2023,03,29,02,18,5.00
2023,03,29,02,19,5.10
2023,03,29,02,20,5.10
2023,03,29,02,21,5.10
2023,03,29,02,22,5.20
2023,03,29,02,23,5.20
2023,03,29,02,24,5.30
2023,03,29,02,25,5.40
2023,03,29,02,26,5.40
2023,03,29,02,27,5.50
2023,03,29,02,28,5.60
2023,03,29,02,29,5.60
2023,03,29,02,30,5.70
2023,03,29,02,31,5.80
2023,03,29,02,32,5.90
2023,03,29,02,33,6.10
2023,03,29,02,34,6.30
2023,03,29,02,35,6.50
2023,03,29,02,36,6.70
2023,03,29,02,37,6.70
2023,03,29,02,38,6.80
2023,03,29,02,39,6.90
2023,03,29,02,40,7.10
2023,03,29,02,41,7.20
2023,03,29,02,42,7.20
2023,03,29,02,43,7.20
2023,03,29,02,44,7.30
2023,03,29,02,45,7.40
2023,03,29,02,46,7.50
2023,03,29,02,47,7.50
2023,03,29,02,48,7.60
2023,03,29,02,49,7.60
2023,03,29,02,50,7.50
2023,03,29,02,51,7.50
2023,03,29,02,52,7.40
2023,03,29,02,53,7.40
2023,03,29,02,54,7.40
2023,03,29,02,55,7.30
2023,03,29,02,56,7.30
2023,03,29,02,57,7.20
2023,03,29,02,58,7.20
2023,03,29,02,59,7.20
2023,03,29,03,00,7.20
2023,03,29,03,01,7.20
2023,03,29,03,02,7.20
2023,03,29,03,03,7.20
2023,03,29,03,04,7.20
2023,03,29,03,05,7.30
2023,03,29,03,06,7.30
2023,03,29,03,07,7.40
2023,03,29,03,08,7.50
2023,03,29,03,09,7.50
2023,03,29,03,10,7.50
2023,03,29,03,11,7.50
2023,03,29,03,12,7.50
2023,03,29,03,13,7.50
2023,03,29,03,14,7.60
2023,03,29,03,15,7.60
2023,03,29,03,16,7.60
2023,03,29,03,17,7.60
2023,03,29,03,18,7.60
2023,03,29,03,19,7.60
2023,03,29,03,20,7.70
2023,03,29,03,21,7.60
2023,03,29,03,22,7.60
2023,03,29,03,23,7.60
2023,03,29,03,24,7.70
2023,03,29,03,25,7.80
2023,03,29,03,26,7.80
2023,03,29,03,27,7.80
2023,03,29,03,28,7.80
2023,03,29,03,29,7.70
2023,03,29,03,30,7.70
2023,03,29,03,31,7.70
2023,03,29,03,32,7.80
2023,03,29,03,33,7.80
2023,03,29,03,34,7.80
2023,03,29,03,35,7.80
2023,03,29,03,36,7.80
2023,03,29,03,37,7.80
2023,03,29,03,38,7.70
2023,03,29,03,39,7.70
2023,03,29,03,40,7.80
2023,03,29,03,41,7.90
2023,03,29,03,42,8.00
2023,03,29,03,43,8.10
2023,03,29,03,44,8.10
2023,03,29,03,45,8.20
2023,03,29,03,46,8.20
2023,03,29,03,47,8.30
2023,03,29,03,48,8.30
2023,03,29,03,49,8.40
2023,03,29,03,50,8.40
2023,03,29,03,51,8.50
2023,03,29,03,52,8.40
2023,03,29,03,53,8.40
2023,03,29,03,54,8.20
2023,03,29,03,55,8.20
2023,03,29,03,56,8.10
2023,03,29,03,57,8.10
2023,03,29,03,58,8.10
2023,03,29,03,59,8.00
2023,03,29,04,00,8.00
2023,03,29,04,01,7.90
2023,03,29,04,02,7.90
2023,03,29,04,03,7.70
2023,03,29,04,04,7.70
2023,03,29,04,05,7.70
2023,03,29,04,06,7.70
2023,03,29,04,07,7.70
2023,03,29,04,08,7.70
2023,03,29,04,09,7.70
2023,03,29,04,10,7.70
2023,03,29,04,11,7.70
2023,03,29,04,12,7.70
2023,03,29,04,13,7.60
2023,03,29,04,14,7.60
2023,03,29,04,15,7.50
2023,03,29,04,16,7.50
2023,03,29,04,17,7.50
2023,03,29,04,18,7.60
2023,03,29,04,19,7.60
2023,03,29,04,20,7.70
2023,03,29,04,21,7.70
2023,03,29,04,22,7.80
2023,03,29,04,23,7.80
2023,03,29,04,24,7.80
2023,03,29,04,25,7.80
2023,03,29,04,26,7.80
2023,03,29,04,27,7.80
2023,03,29,04,28,7.80
2023,03,29,04,29,7.80
2023,03,29,04,30,7.80
2023,03,29,04,31,7.70
2023,03,29,04,32,7.60
2023,03,29,04,33,7.60
2023,03,29,04,34,7.50
2023,03,29,04,35,7.40
2023,03,29,04,36,7.30
2023,03,29,04,37,7.30
2023,03,29,04,38,7.30
2023,03,29,04,39,7.30
2023,03,29,04,40,7.20
2023,03,29,04,41,7.20
2023,03,29,04,42,7.20
2023,03,29,04,43,7.20
2023,03,29,04,44,7.20
2023,03,29,04,45,7.20
2023,03,29,04,46,7.20
2023,03,29,04,47,7.20
2023,03,29,04,48,7.20
2023,03,29,04,49,7.20
2023,03,29,04,50,7.30
2023,03,29,04,51,7.30
2023,03,29,04,52,7.40
2023,03,29,04,53,7.40
2023,03,29,04,54,7.40
2023,03,29,04,55,7.50
2023,03,29,04,56,7.60
2023,03,29,04,57,7.70
2023,03,29,04,58,7.70
2023,03,29,04,59,7.60
2023,03,29,05,00,7.60
2023,03,29,05,01,7.60
2023,03,29,05,02,7.60
2023,03,29,05,03,7.60
2023,03,29,05,04,7.60
2023,03,29,05,05,7.70
2023,03,29,05,06,7.60
2023,03,29,05,07,7.60
2023,03,29,05,08,7.60
2023,03,29,05,09,7.50
2023,03,29,05,10,7.50
2023,03,29,05,11,7.40
2023,03,29,05,12,7.40
2023,03,29,05,13,7.40
2023,03,29,05,14,7.30
2023,03,29,05,15,7.40
2023,03,29,05,16,7.40
2023,03,29,05,17,7.40
2023,03,29,05,18,7.50
2023,03,29,05,19,7.60
2023,03,29,05,20,7.60
2023,03,29,05,21,7.60
2023,03,29,05,22,7.50
2023,03,29,05,23,7.50
2023,03,29,05,24,7.40
2023,03,29,05,25,7.40
2023,03,29,05,26,7.40
2023,03,29,05,27,7.40
2023,03,29,05,28,7.40
2023,03,29,05,29,7.40
2023,03,29,05,30,7.40
2023,03,29,05,31,7.40
2023,03,29,05,32,7.50
2023,03,29,05,33,7.50
2023,03,29,05,34,7.50
2023,03,29,05,35,7.50
2023,03,29,05,36,7.40
2023,03,29,05,37,7.30
2023,03,29,05,38,7.30
2023,03,29,05,39,7.30
2023,03,29,05,40,7.30
2023,03,29,05,41,7.30
2023,03,29,05,42,7.30
2023,03,29,05,43,7.40
2023,03,29,05,44,7.40
2023,03,29,05,45,7.30
2023,03,29,05,46,7.30
2023,03,29,05,47,7.30
2023,03,29,05,48,7.20
2023,03,29,05,49,7.10
2023,03,29,05,50,7.00
2023,03,29,05,51,6.90
2023,03,29,05,52,6.80
2023,03,29,05,53,6.80
2023,03,29,05,54,6.80
2023,03,29,05,55,6.90
2023,03,29,05,56,7.00
2023,03,29,05,57,7.10
2023,03,29,05,58,7.20
2023,03,29,05,59,7.20
2023,03,29,06,00,7.20
2023,03,29,06,01,7.10
2023,03,29,06,02,7.10
2023,03,29,06,03,7.00
2023,03,29,06,04,7.10
2023,03,29,06,05,7.00
2023,03,29,06,06,6.90
2023,03,29,06,07,6.80
2023,03,29,06,08,6.80
2023,03,29,06,09,6.80
2023,03,29,06,10,6.90
2023,03,29,06,11,6.90
2023,03,29,06,12,6.80
2023,03,29,06,13,6.80
2023,03,29,06,14,6.80
2023,03,29,06,15,6.80
2023,03,29,06,16,6.80
2023,03,29,06,17,6.80
2023,03,29,06,18,6.80
2023,03,29,06,19,6.80
2023,03,29,06,20,6.90
2023,03,29,06,21,6.90
2023,03,29,06,22,6.90
2023,03,29,06,23,7.00
2023,03,29,06,24,7.10
2023,03,29,06,25,7.00
2023,03,29,06,26,7.10
2023,03,29,06,27,7.10
2023,03,29,06,28,7.00
2023,03,29,06,29,7.00
2023,03,29,06,30,6.90
2023,03,29,06,31,6.90
2023,03,29,06,32,6.80
2023,03,29,06,33,6.80
2023,03,29,06,34,6.80
2023,03,29,06,35,6.80
2023,03,29,06,36,6.80
2023,03,29,06,37,6.80
2023,03,29,06,38,6.90
2023,03,29,06,39,6.90
2023,03,29,06,40,6.90
2023,03,29,06,41,7.00
2023,03,29,06,42,7.20
2023,03,29,06,43,7.20
2023,03,29,06,44,7.20
2023,03,29,06,45,7.20
2023,03,29,06,46,7.20
2023,03,29,06,47,7.20
2023,03,29,06,48,7.20
2023,03,29,06,49,7.10
2023,03,29,06,50,7.10
2023,03,29,06,51,7.00
2023,03,29,06,52,7.00
2023,03,29,06,53,7.00
2023,03,29,06,54,7.00
2023,03,29,06,55,6.90
2023,03,29,06,56,6.90
2023,03,29,06,57,6.80
2023,03,29,06,58,6.70
2023,03,29,06,59,6.70
2023,03,29,07,00,6.60
2023,03,29,07,01,6.50
2023,03,29,07,02,6.40
2023,03,29,07,03,6.30
2023,03,29,07,04,6.30
2023,03,29,07,05,6.20
2023,03,29,07,06,6.10
2023,03,29,07,07,6.00
2023,03,29,07,08,5.90
2023,03,29,07,09,5.90
2023,03,29,07,10,5.80
2023,03,29,07,11,5.70
2023,03,29,07,12,5.70
2023,03,29,07,13,5.60
2023,03,29,07,14,5.50
2023,03,29,07,15,5.50
2023,03,29,07,16,5.40
2023,03,29,07,17,5.30
2023,03,29,07,18,5.30
2023,03,29,07,19,5.20
2023,03,29,07,20,5.20
2023,03,29,07,21,5.10
2023,03,29,07,22,5.10
2023,03,29,07,23,5.10
2023,03,29,07,24,5.00
2023,03,29,07,25,5.00
2023,03,29,07,26,4.90
2023,03,29,07,27,4.90
2023,03,29,07,28,4.80
2023,03,29,07,29,4.80
2023,03,29,07,30,4.80
2023,03,29,07,31,4.80
2023,03,29,07,32,4.70
2023,03,29,07,33,4.70
2023,03,29,07,34,4.70
2023,03,29,07,35,4.60
2023,03,29,07,36,4.60
2023,03,29,07,37,4.60
2023,03,29,07,38,4.50
2023,03,29,07,39,4.50
2023,03,29,07,40,4.50
2023,03,29,07,41,4.40
2023,03,29,07,42,4.40
2023,03,29,07,43,4.30
2023,03,29,07,44,4.30
2023,03,29,07,45,4.30
2023,03,29,07,46,4.30
2023,03,29,07,47,4.20
2023,03,29,07,48,4.20
2023,03,29,07,49,4.20
2023,03,29,07,50,4.20
2023,03,29,07,51,4.20
2023,03,29,07,52,4.20
2023,03,29,07,53,4.10
2023,03,29,07,54,4.10
2023,03,29,07,55,4.10
2023,03,29,07,56,4.10
2023,03,29,07,57,4.10
2023,03,29,07,58,4.10
2023,03,29,07,59,4.10
2023,03,29,08,00,4.10
2023,03,29,08,01,4.20
2023,03,29,08,02,4.20
2023,03,29,08,03,4.10
2023,03,29,08,04,4.20
2023,03,29,08,05,4.10
2023,03,29,08,06,4.10
2023,03,29,08,07,4.10
2023,03,29,08,08,4.10
2023,03,29,08,09,4.10
2023,03,29,08,10,4.10
2023,03,29,08,11,4.10
2023,03,29,08,12,4.10
2023,03,29,08,13,4.10
2023,03,29,08,14,4.10
2023,03,29,08,15,4.20
2023,03,29,08,16,4.20
2023,03,29,08,17,4.20
2023,03,29,08,18,4.20
2023,03,29,08,19,4.20
2023,03,29,08,20,4.20
2023,03,29,08,21,4.20
2023,03,29,08,22,4.30
2023,03,29,08,23,4.30
2023,03,29,08,24,4.40
2023,03,29,08,25,4.60
2023,03,29,08,26,4.60
2023,03,29,08,27,4.80
2023,03,29,08,28,4.90
2023,03,29,08,29,5.00
2023,03,29,08,30,5.10
2023,03,29,08,31,5.20
2023,03,29,08,32,5.30
2023,03,29,08,33,5.40
2023,03,29,08,34,5.60
2023,03,29,08,35,5.80
2023,03,29,08,36,6.00
2023,03,29,08,37,6.30
2023,03,29,08,38,6.50
2023,03,29,08,39,6.70
2023,03,29,08,40,7.00
2023,03,29,08,41,7.20
2023,03,29,08,42,7.50
2023,03,29,08,43,7.60
2023,03,29,08,44,7.80
2023,03,29,08,45,8.00
2023,03,29,08,46,8.20
2023,03,29,08,47,8.40
2023,03,29,08,48,8.50
2023,03,29,08,49,8.60
2023,03,29,08,50,8.80
2023,03,29,08,51,8.80
2023,03,29,08,52,8.90
2023,03,29,08,53,9.00
2023,03,29,08,54,9.10
2023,03,29,08,55,9.10
2023,03,29,08,56,9.20
2023,03,29,08,57,9.30
2023,03,29,08,58,9.30
2023,03,29,08,59,9.40
2023,03,29,09,00,9.40
2023,03,29,09,01,9.50
2023,03,29,09,02,9.60
2023,03,29,09,03,9.60
2023,03,29,09,04,9.70
2023,03,29,09,05,9.80
2023,03,29,09,06,9.80
2023,03,29,09,07,9.90
2023,03,29,09,08,9.90
2023,03,29,09,09,10.00
2023,03,29,09,10,10.00
2023,03,29,09,11,10.10
2023,03,29,09,12,10.10
2023,03,29,09,13,10.20
2023,03,29,09,14,10.20
2023,03,29,09,15,10.30
2023,03,29,09,16,10.30
2023,03,29,09,17,10.40
2023,03,29,09,18,10.40
2023,03,29,09,19,10.50
2023,03,29,09,20,10.50
2023,03,29,09,21,10.60
2023,03,29,09,22,10.60
2023,03,29,09,23,10.70
2023,03,29,09,24,10.80
2023,03,29,09,25,10.80
2023,03,29,09,26,10.90
2023,03,29,09,27,11.00
2023,03,29,09,28,11.00
2023,03,29,09,29,11.10
2023,03,29,09,30,11.20
2023,03,29,09,31,11.20
2023,03,29,09,32,11.30
2023,03,29,09,33,11.30
2023,03,29,09,34,11.30
2023,03,29,09,35,11.30
2023,03,29,09,36,11.30
2023,03,29,09,37,11.30
2023,03,29,09,38,11.30
2023,03,29,09,39,11.30
2023,03,29,09,40,11.30
2023,03,29,09,41,11.40
2023,03,29,09,42,11.30
2023,03,29,09,43,11.30
2023,03,29,09,44,11.40
2023,03,29,09,45,11.40
2023,03,29,09,46,11.40
2023,03,29,09,47,11.40
2023,03,29,09,48,11.50
2023,03,29,09,49,11.50
2023,03,29,09,50,11.50
2023,03,29,09,51,11.50
2023,03,29,09,52,11.40
2023,03,29,09,53,11.40
2023,03,29,09,54,11.40
2023,03,29,09,55,11.40
2023,03,29,09,56,11.40
2023,03,29,09,57,11.50
2023,03,29,09,58,11.50
2023,03,29,09,59,11.50
2023,03,29,10,00,11.60
2023,03,29,10,01,11.60
2023,03,29,10,02,11.60
2023,03,29,10,03,11.60
2023,03,29,10,04,11.60
2023,03,29,10,05,11.70
2023,03,29,10,06,11.70
2023,03,29,10,07,11.70
2023,03,29,10,08,11.70
2023,03,29,10,09,11.60
2023,03,29,10,10,11.70
2023,03,29,10,11,11.60
2023,03,29,10,12,11.60
2023,03,29,10,13,11.60
2023,03,29,10,14,11.60
2023,03,29,10,15,11.60
2023,03,29,10,16,11.60
2023,03,29,10,17,11.60
2023,03,29,10,18,11.60
2023,03,29,10,19,11.60
2023,03,29,10,20,11.70
2023,03,29,10,21,11.70
2023,03,29,10,22,11.80
2023,03,29,10,23,11.80
2023,03,29,10,24,11.80
2023,03,29,10,25,11.80
2023,03,29,10,26,11.80
2023,03,29,10,27,11.80
2023,03,29,10,28,11.80
2023,03,29,10,29,11.80
2023,03,29,10,30,11.80
2023,03,29,10,31,11.90
2023,03,29,10,32,11.90
2023,03,29,10,33,11.90
2023,03,29,10,34,11.90
2023,03,29,10,35,11.90
2023,03,29,10,36,12.00
2023,03,29,10,37,12.00
2023,03,29,10,38,12.10
2023,03,29,10,39,12.10
2023,03,29,10,40,12.20
2023,03,29,10,41,12.20
2023,03,29,10,42,12.20
2023,03,29,10,43,12.20
2023,03,29,10,44,12.20
2023,03,29,10,45,12.30
2023,03,29,10,46,12.20
2023,03,29,10,47,12.20
2023,03,29,10,48,12.20
2023,03,29,10,49,12.20
2023,03,29,10,50,12.20
2023,03,29,10,51,12.20
2023,03,29,10,52,12.20
2023,03,29,10,53,12.10
2023,03,29,10,54,12.10
2023,03,29,10,55,12.10
2023,03,29,10,56,12.10
2023,03,29,10,57,12.20
2023,03,29,10,58,12.20
2023,03,29,10,59,12.20
2023,03,29,11,00,12.10
2023,03,29,11,01,12.10
2023,03,29,11,02,12.10
2023,03,29,11,03,12.00
2023,03,29,11,04,12.00
2023,03,29,11,05,12.00
2023,03,29,11,06,11.90
2023,03,29,11,07,11.90
2023,03,29,11,08,11.90
2023,03,29,11,09,11.90
2023,03,29,11,10,11.90
2023,03,29,11,11,12.00
2023,03,29,11,12,12.00
2023,03,29,11,13,12.00
2023,03,29,11,14,12.10
2023,03,29,11,15,12.10
2023,03,29,11,16,12.10
2023,03,29,11,17,12.10
2023,03,29,11,18,12.10
2023,03,29,11,19,12.10
2023,03,29,11,20,12.10
2023,03,29,11,21,12.20
2023,03,29,11,22,12.20
2023,03,29,11,23,12.20
2023,03,29,11,24,12.30
2023,03,29,11,25,12.30
2023,03,29,11,26,12.30
2023,03,29,11,27,12.40
2023,03,29,11,28,12.50
2023,03,29,11,29,12.50
2023,03,29,11,30,12.60
2023,03,29,11,31,12.60
2023,03,29,11,32,12.70
2023,03,29,11,33,12.80
2023,03,29,11,34,12.80
2023,03,29,11,35,12.80
2023,03,29,11,36,12.70
2023,03,29,11,37,12.70
2023,03,29,11,38,12.70
2023,03,29,11,39,12.70
2023,03,29,11,40,12.70
2023,03,29,11,41,12.70
2023,03,29,11,42,12.70
2023,03,29,11,43,12.70
2023,03,29,11,44,12.70
2023,03,29,11,45,12.70
2023,03,29,11,46,12.70
2023,03,29,11,47,12.70
2023,03,29,11,48,12.70
2023,03,29,11,49,12.70
2023,03,29,11,50,12.70
2023,03,29,11,51,12.60
2023,03,29,11,52,12.60
2023,03,29,11,53,12.60
2023,03,29,11,54,12.60
2023,03,29,11,55,12.60
2023,03,29,11,56,12.50
2023,03,29,11,57,12.50
2023,03,29,11,58,12.50
2023,03,29,11,59,12.50
2023,03,29,12,00,12.50
2023,03,29,12,01,12.50
2023,03,29,12,02,12.50
2023,03,29,12,03,12.60
2023,03,29,12,04,12.60
2023,03,29,12,05,12.60
2023,03,29,12,06,12.70
2023,03,29,12,07,12.70
2023,03,29,12,08,12.70
2023,03,29,12,09,12.70
2023,03,29,12,10,12.70
2023,03,29,12,11,12.80
2023,03,29,12,12,12.80
2023,03,29,12,13,12.90
2023,03,29,12,14,13.00
2023,03,29,12,15,13.10
2023,03,29,12,16,13.20
2023,03,29,12,17,13.20
2023,03,29,12,18,13.30
2023,03,29,12,19,13.20
2023,03,29,12,20,13.20
2023,03,29,12,21,13.10
2023,03,29,12,22,13.00
2023,03,29,12,23,13.00
2023,03,29,12,24,12.90
2023,03,29,12,25,12.90
2023,03,29,12,26,12.90
2023,03,29,12,27,13.00
2023,03,29,12,28,13.00
2023,03,29,12,29,13.20
2023,03,29,12,30,13.30
2023,03,29,12,31,13.50
2023,03,29,12,32,13.60
2023,03,29,12,33,13.80
2023,03,29,12,34,13.90
2023,03,29,12,35,14.00
2023,03,29,12,36,14.10
2023,03,29,12,37,14.10
2023,03,29,12,38,14.10
2023,03,29,12,39,14.00
2023,03,29,12,40,13.80
2023,03,29,12,41,13.80
2023,03,29,12,42,13.70
2023,03,29,12,43,13.70
2023,03,29,12,44,13.60
2023,03,29,12,45,13.60
2023,03,29,12,46,13.60
2023,03,29,12,47,13.70
2023,03,29,12,48,13.70
2023,03,29,12,49,13.70
2023,03,29,12,50,13.80
2023,03,29,12,51,13.80
2023,03,29,12,52,13.70
2023,03,29,12,53,13.60
2023,03,29,12,54,13.50
2023,03,29,12,55,13.50
2023,03,29,12,56,13.40
2023,03,29,12,57,13.40
2023,03,29,12,58,13.50
2023,03,29,12,59,13.50
2023,03,29,13,00,13.70
2023,03,29,13,01,13.80
2023,03,29,13,02,14.00
2023,03,29,13,03,14.10
2023,03,29,13,04,14.20
2023,03,29,13,05,14.30
2023,03,29,13,06,14.40
2023,03,29,13,07,14.40
2023,03,29,13,08,14.40
2023,03,29,13,09,14.30
2023,03,29,13,10,14.30
2023,03,29,13,11,14.30
2023,03,29,13,12,14.20
2023,03,29,13,13,14.20
2023,03,29,13,14,14.30
2023,03,29,13,15,14.30
2023,03,29,13,16,14.20
2023,03,29,13,17,14.10
2023,03,29,13,18,14.10
2023,03,29,13,19,14.10
2023,03,29,13,20,14.10
2023,03,29,13,21,14.10
2023,03,29,13,22,14.00
2023,03,29,13,23,14.00
2023,03,29,13,24,14.00
2023,03,29,13,25,14.00
2023,03,29,13,26,14.00
2023,03,29,13,27,14.00
2023,03,29,13,28,13.90
2023,03,29,13,29,13.80
2023,03,29,13,30,13.80
2023,03,29,13,31,13.70
2023,03,29,13,32,13.60
2023,03,29,13,33,13.60
2023,03,29,13,34,13.60
2023,03,29,13,35,13.60
2023,03,29,13,36,13.70
2023,03,29,13,37,13.70
2023,03,29,13,38,13.70
2023,03,29,13,39,13.70
2023,03,29,13,40,13.70
2023,03,29,13,41,13.70
2023,03,29,13,42,13.80
2023,03,29,13,43,13.80
2023,03,29,13,44,13.80
2023,03,29,13,45,13.90
2023,03,29,13,46,13.90
2023,03,29,13,47,13.90
2023,03,29,13,48,13.80
2023,03,29,13,49,13.80
2023,03,29,13,50,13.80
2023,03,29,13,51,13.80
2023,03,29,13,52,13.80
2023,03,29,13,53,13.80
2023,03,29,13,54,13.80
2023,03,29,13,55,13.80
2023,03,29,13,56,13.80
2023,03,29,13,57,13.70
2023,03,29,13,58,13.70
2023,03,29,13,59,13.70
2023,03,29,14,00,13.70
2023,03,29,14,01,13.80
2023,03,29,14,02,13.80
2023,03,29,14,03,13.80
2023,03,29,14,04,13.90
2023,03,29,14,05,14.00
2023,03,29,14,06,14.10
2023,03,29,14,07,14.10
2023,03,29,14,08,14.20
2023,03,29,14,09,14.20
2023,03,29,14,10,14.30
2023,03,29,14,11,14.40
2023,03,29,14,12,14.50
2023,03,29,14,13,14.60
2023,03,29,14,14,14.60
2023,03,29,14,15,14.50
2023,03,29,14,16,14.50
2023,03,29,14,17,14.50
2023,03,29,14,18,14.50
2023,03,29,14,19,14.60
2023,03,29,14,20,14.70
2023,03,29,14,21,14.70
2023,03,29,14,22,14.80
2023,03,29,14,23,14.80
2023,03,29,14,24,14.70
2023,03,29,14,25,14.60
2023,03,29,14,26,14.50
2023,03,29,14,27,14.40
2023,03,29,14,28,14.40
2023,03,29,14,29,14.40
2023,03,29,14,30,14.50
2023,03,29,14,31,14.50
2023,03,29,14,32,14.40
2023,03,29,14,33,14.20
2023,03,29,14,34,14.00
2023,03,29,14,35,13.90
2023,03,29,14,36,13.90
2023,03,29,14,37,13.80
2023,03,29,14,38,13.80
2023,03,29,14,39,13.80
2023,03,29,14,40,13.80
2023,03,29,14,41,13.80
2023,03,29,14,42,13.80
2023,03,29,14,43,13.80
2023,03,29,14,44,13.80
2023,03,29,14,45,13.80
2023,03,29,14,46,13.80
2023,03,29,14,47,13.90
2023,03,29,14,48,13.90
2023,03,29,14,49,13.90
2023,03,29,14,50,14.00
2023,03,29,14,51,14.00
2023,03,29,14,52,14.00
2023,03,29,14,53,14.10
2023,03,29,14,54,14.10
2023,03,29,14,55,14.10
2023,03,29,14,56,14.10
2023,03,29,14,57,14.10
2023,03,29,14,58,14.20
2023,03,29,14,59,14.20
2023,03,29,15,00,14.20
2023,03,29,15,01,14.20
2023,03,29,15,02,14.30
2023,03,29,15,03,14.30
2023,03,29,15,04,14.40
2023,03,29,15,05,14.40
2023,03,29,15,06,14.40
2023,03,29,15,07,14.50
2023,03,29,15,08,14.50
2023,03,29,15,09,14.50
2023,03,29,15,10,14.50
2023,03,29,15,11,14.50
2023,03,29,15,12,14.50
2023,03,29,15,13,14.50
2023,03,29,15,14,14.50
2023,03,29,15,15,14.60
2023,03,29,15,16,14.60
2023,03,29,15,17,14.60
2023,03,29,15,18,14.60
2023,03,29,15,19,14.60
2023,03,29,15,20,14.50
2023,03,29,15,21,14.50
2023,03,29,15,22,14.50
2023,03,29,15,23,14.50
2023,03,29,15,24,14.50
2023,03,29,15,25,14.40
2023,03,29,15,26,14.40
2023,03,29,15,27,14.40
2023,03,29,15,28,14.30
2023,03,29,15,29,14.30
2023,03,29,15,30,14.20
2023,03,29,15,31,14.20
2023,03,29,15,32,14.20
2023,03,29,15,33,14.20
2023,03,29,15,34,14.20
2023,03,29,15,35,14.10
2023,03,29,15,36,14.00
2023,03,29,15,37,14.00
2023,03,29,15,38,14.00
2023,03,29,15,39,13.90
2023,03,29,15,40,13.90
2023,03,29,15,41,13.90
2023,03,29,15,42,13.90
2023,03,29,15,43,13.90
2023,03,29,15,44,13.90
2023,03,29,15,45,13.90
2023,03,29,15,46,13.90
2023,03,29,15,47,13.90
2023,03,29,15,48,13.90
2023,03,29,15,49,13.90
2023,03,29,15,50,13.90
2023,03,29,15,51,13.90
2023,03,29,15,52,13.90
2023,03,29,15,53,13.90
2023,03,29,15,54,13.90
2023,03,29,15,55,13.90
2023,03,29,15,56,13.90
2023,03,29,15,57,13.90
2023,03,29,15,58,14.00
2023,03,29,15,59,14.00
2023,03,29,16,00,14.00
2023,03,29,16,01,14.10
2023,03,29,16,02,14.10
2023,03,29,16,03,14.10
2023,03,29,16,04,14.10
2023,03,29,16,05,14.10
2023,03,29,16,06,14.10
2023,03,29,16,07,14.20
2023,03,29,16,08,14.20
2023,03,29,16,09,14.20
2023,03,29,16,10,14.20
2023,03,29,16,11,14.20
2023,03,29,16,12,14.20
2023,03,29,16,13,14.20
2023,03,29,16,14,14.30
2023,03,29,16,15,14.30
2023,03,29,16,16,14.30
2023,03,29,16,17,14.30
2023,03,29,16,18,14.30
2023,03,29,16,19,14.30
2023,03,29,16,20,14.30
2023,03,29,16,21,14.30
2023,03,29,16,22,14.30
2023,03,29,16,23,14.30
2023,03,29,16,24,14.30
2023,03,29,16,25,14.30
2023,03,29,16,26,14.30
2023,03,29,16,27,14.30
2023,03,29,16,28,14.20
2023,03,29,16,29,14.20
2023,03,29,16,30,14.20
2023,03,29,16,31,14.20
2023,03,29,16,32,14.20
2023,03,29,16,33,14.20
2023,03,29,16,34,14.20
2023,03,29,16,35,14.20
2023,03,29,16,36,14.20
2023,03,29,16,37,14.20
2023,03,29,16,38,14.10
2023,03,29,16,39,14.10
2023,03,29,16,40,14.10
2023,03,29,16,41,14.10
2023,03,29,16,42,14.10
2023,03,29,16,43,14.10
2023,03,29,16,44,14.10
2023,03,29,16,45,14.10
2023,03,29,16,46,14.10
2023,03,29,16,47,14.10
2023,03,29,16,48,14.10
2023,03,29,16,49,14.10
2023,03,29,16,50,14.10
2023,03,29,16,51,14.10
2023,03,29,16,52,14.10
2023,03,29,16,53,14.10
2023,03,29,16,54,14.10
2023,03,29,16,55,14.20
2023,03,29,16,56,14.20
2023,03,29,16,57,14.20
2023,03,29,16,58,14.20
2023,03,29,16,59,14.20
2023,03,29,17,00,14.20
2023,03,29,17,01,14.20
2023,03,29,17,02,14.20
2023,03,29,17,03,14.20
2023,03,29,17,04,14.20
2023,03,29,17,05,14.20
2023,03,29,17,06,14.20
2023,03,29,17,07,14.20
2023,03,29,17,08,14.20
2023,03,29,17,09,14.20
2023,03,29,17,10,14.20
2023,03,29,17,11,14.10
2023,03,29,17,12,14.10
2023,03,29,17,13,14.10
2023,03,29,17,14,14.10
2023,03,29,17,15,14.10
2023,03,29,17,16,14.00
2023,03,29,17,17,14.00
2023,03,29,17,18,14.00
2023,03,29,17,19,14.00
2023,03,29,17,20,14.00
2023,03,29,17,21,14.00
2023,03,29,17,22,14.00
2023,03,29,17,23,14.00
2023,03,29,17,24,14.00
2023,03,29,17,25,14.00
2023,03,29,17,26,14.00
2023,03,29,17,27,14.00
2023,03,29,17,28,13.90
2023,03,29,17,29,13.90
2023,03,29,17,30,13.90
2023,03,29,17,31,13.90
2023,03,29,17,32,13.80
2023,03,29,17,33,13.80
2023,03,29,17,34,13.80
2023,03,29,17,35,13.80
2023,03,29,17,36,13.80
2023,03,29,17,37,13.80
2023,03,29,17,38,13.70
2023,03,29,17,39,13.70
2023,03,29,17,40,13.70
2023,03,29,17,41,13.70
2023,03,29,17,42,13.70
2023,03,29,17,43,13.70